Consulta les dades en temps real de l'estació meteorològica de Parc Astronòmic del Montsec
| Hora UTC | 05:50 |
|---|---|
| Temperatura | 23.2 ºC |
| Humitat | 65.0 % |
| Pressió | 1019.0 hPa |
| Pluja | 0.0 mm |
| Velocitat vent | km/h |
| Direcció vent |
| Temperatura (ºC) | Humitat (%) | Pressió (hPa) | Velocitat vent (km/h) | Precipitació (mm) | ||||||||||||
|---|---|---|---|---|---|---|---|---|---|---|---|---|---|---|---|---|
| Hora UTC | Aire | Humitat | Pressió | Vel. | Dir. | Vel. Max | Dir. | Intent. màx 5 min. | ||||||||
| 00:10 | 25.3 | 52.0 | 1020.4 | 4.8 | 4.8 | 0.0 | ||||||||||
| 00:25 | 25.1 | 53.0 | 1020.4 | 1.6 | N | 4.8 | 0.0 | |||||||||
| 00:40 | 25.2 | 55.0 | 1020.3 | 3.2 | 4.8 | 0.0 | ||||||||||
| 00:55 | 24.9 | 57.0 | 1020.4 | 3.2 | N | 4.8 | 0.0 | |||||||||
| 01:10 | 24.5 | 58.0 | 1020.5 | 1.6 | 4.8 | 0.0 | ||||||||||
| 01:25 | 24.3 | 60.0 | 1020.5 | 3.2 | N | 4.8 | 0.0 | |||||||||
| 01:40 | 24.3 | 59.0 | 1020.4 | 3.2 | 4.8 | 0.0 | ||||||||||
| 01:55 | 24.2 | 59.0 | 1020.3 | 4.8 | N | 4.8 | N | 0.0 | ||||||||
| 02:10 | 24.4 | 57.0 | 1020.3 | 4.8 | 4.8 | NNW | 0.0 | |||||||||
| 02:25 | 24.4 | 59.0 | 1020.2 | 4.8 | N | 4.8 | N | 0.0 | ||||||||
| 02:40 | 24.3 | 60.0 | 1020.1 | 4.8 | N | 0.0 | ||||||||||
| 02:55 | 24.6 | 61.0 | 1020.1 | 3.2 | 4.8 | N | 0.0 | |||||||||
| 03:15 | 24.3 | 58.0 | 1019.9 | NNE | 4.8 | N | 0.0 | |||||||||
| 03:30 | 24.0 | 62.0 | 1019.8 | 3.2 | 4.8 | N | 0.0 | |||||||||
| 03:45 | 24.1 | 62.0 | 1019.6 | NNE | 4.8 | N | 0.0 | |||||||||
| 04:00 | 23.8 | 63.0 | 1019.6 | 4.8 | N | 0.0 | ||||||||||
| 04:15 | 23.2 | 66.0 | 1019.6 | NNE | 4.8 | N | 0.0 | |||||||||
| 04:30 | 23.3 | 67.0 | 1019.4 | 4.8 | N | 0.0 | ||||||||||
| 04:45 | 23.3 | 67.0 | 1019.4 | 4.8 | N | 0.0 | ||||||||||
| 05:05 | 22.4 | 70.0 | 1019.3 | 3.2 | N | 4.8 | N | 0.0 | ||||||||
| 05:20 | 21.9 | 71.0 | 1019.2 | 1.6 | 4.8 | N | 0.0 | |||||||||
| 05:35 | 22.7 | 70.0 | 1019.1 | 3.2 | N | 4.8 | N | 0.0 | ||||||||
| 05:50 | 23.2 | 65.0 | 1019.0 | 4.8 | N | 0.0 | ||||||||||
| Màxima | 25.3 | 71.0 | 1020.5 | 4.8 | N | 4.8 | N | 0.0 | ||||||||
| Mínima | 20 | 52.0 | 1019.0 | |||||||||||||
| Total | 0.0 | |||||||||||||||